N5CSU Weather Reports


Display with metric or nautical units.
time (UTC)temp
F
wind
direction
speed
MPH
gust
MPH
rain 1hr
in
rain 24hr
in
rain mn
in
humidity
%
barometer
mb
20220525071355 63 246 0.0 0.0 0.00 0.41 0.41 90 1008.8
20220525070854 63 246 0.0 0.0 0.00 0.41 0.41 90 1007.3
20220525070353 63 246 0.0 0.0 0.00 0.41 0.41 90 1007.6
20220525065852 63 246 0.0 0.0 0.00 0.41 0.41 90 1007.3
20220525065350 63 171 0.0 3.0 0.00 0.41 0.41 90 1005.6
20220525064848 63 146 0.0 0.0 0.00 0.41 0.41 90 1006.3
20220525064348 63 163 0.0 0.0 0.00 0.41 0.41 90 1007.3
20220525063847 63 163 0.0 0.0 0.00 0.41 0.41 90 1007.3
20220525063347 63 163 0.0 0.0 0.07 0.41 0.41 90 1007.6
20220525062845 63 164 0.0 0.0 0.07 0.41 0.41 90 1008.0
20220525062345 63 164 0.0 0.0 0.07 0.40 0.40 90 1008.0
20220525061845 63 164 0.0 0.0 0.14 0.40 0.40 90 1008.8
20220525061343 63 164 0.0 0.0 0.21 0.38 0.38 90 1009.1
20220525060842 63 164 0.0 0.0 0.28 0.37 0.37 90 1009.4
20220525060341 63 163 0.0 0.0 0.50 0.34 0.34 89 1009.8
20220525055841 63 169 0.0 0.0 0.50 0.31 0.31 89 1010.1
20220525055341 63 170 0.0 0.0 0.35 0.25 0.25 89 1010.8
20220525054839 63 169 0.0 0.0 0.35 0.22 0.22 89 1010.8
20220525054338 63 166 0.0 0.0 0.35 0.19 0.19 89 1011.1
20220525053837 63 168 0.0 0.0 0.43 0.17 0.17 89 1011.1
20220525053336 63 166 0.0 0.0 0.43 0.12 0.12 89 1011.1
20220525052836 63 165 0.0 0.0 0.35 0.08 0.08 89 1010.8
20220525052334 63 163 0.0 0.0 0.14 0.04 0.04 89 1010.8
20220525051833 63 133 0.0 0.0 0.14 0.02 0.02 89 1011.1
20220525051331 63 135 0.0 0.0 0.07 0.01 0.01 89 1011.1
20220525050829 63 135 0.0 0.0 0.00 0.00 0.00 89 1010.8
20220525050328 63 135 0.0 0.0 0.00 0.00 0.00 89 1010.4
20220525045828 63 135 0.0 0.0 0.07 5.11 5.11 89 1009.8
20220525045327 63 133 0.0 0.0 0.14 5.11 5.11 89 1009.4
20220525044825 63 133 0.0 0.0 0.14 5.10 5.10 89 1009.4
20220525044323 63 134 0.0 0.0 0.28 5.09 5.09 89 1009.8
20220525043824 63 136 0.0 0.0 0.35 5.08 5.08 89 1010.1
20220525043322 63 138 0.0 0.0 0.35 5.04 5.04 89 1010.4
20220525042822 63 138 0.0 0.0 0.28 5.02 5.02 89 1010.4
20220525042320 63 139 0.0 0.0 0.14 4.98 4.98 89 1010.8
20220525041819 63 139 0.0 0.0 0.14 4.97 4.97 89 1010.4
20220525041317 63 140 0.0 0.0 0.14 4.96 4.96 89 1010.4
20220525040815 63 140 0.0 0.0 0.14 4.95 4.95 89 1010.1
20220525040314 63 140 0.0 0.0 0.14 4.94 4.94 89 1010.1
20220525035814 62 140 0.0 0.0 0.14 4.93 4.93 89 1010.4
20220525035313 62 145 0.0 0.0 0.07 4.91 4.91 89 1010.8
20220525034811 62 145 0.0 0.0 0.00 4.90 4.90 89 1010.8
20220525034309 62 150 0.0 0.0 0.00 4.90 4.90 88 1010.8
20220525033809 62 147 0.0 0.0 0.00 4.90 4.90 88 1010.8
20220525033307 63 146 0.0 0.0 0.00 4.90 4.90 88 1010.4
20220525032807 63 146 0.0 0.0 0.00 4.90 4.90 88 1010.1
20220525032307 63 146 0.0 0.0 0.00 4.90 4.90 88 1010.1
20220525031806 63 147 0.0 0.0 0.00 4.90 4.90 89 1010.8
20220525031305 63 148 0.0 0.0 0.00 4.90 4.90 89 1011.1
20220525030803 63 148 0.0 0.0 0.00 4.90 4.90 89 1011.1
20220525030301 63 156 0.0 0.0 0.07 4.90 4.90 88 1011.5
20220525025801 63 159 0.0 0.0 0.14 4.90 4.90 88 1011.5
20220525025301 63 159 0.0 0.0 0.43 4.89 4.89 88 1011.5
20220525024802 63 157 0.0 0.0 0.71 4.88 4.88 88 1011.5
20220525024300 63 153 0.0 0.0 1.42 4.82 4.82 88 1011.5
20220525023759 63 168 0.0 0.0 1.20 4.75 4.75 88 1012.1
20220525023257 63 166 0.0 0.0 1.77 4.58 4.58 88 1012.8
20220525022755 63 142 0.0 0.0 2.91 4.54 4.54 88 1012.8
20220525022254 63 67 0.0 0.0 3.47 4.28 4.28 88 1011.8
20220525021753 63 225 0.0 0.0 2.98 4.04 4.04 88 1012.1
20220525021251 63 357 0.0 0.0 1.70 3.67 3.67 88 1011.8
20220525020751 63 226 0.0 0.0 1.56 3.54 3.54 88 1011.5
20220525020251 63 238 0.0 0.0 0.64 3.38 3.38 87 1010.4
20220525015750 63 251 0.0 0.0 0.07 3.28 3.28 87 1009.8
20220525015250 63 82 0.0 0.0 0.07 3.27 3.27 87 1009.4
20220525014749 63 236 0.0 0.0 0.14 3.27 3.27 87 1009.4
20220525014249 64 358 0.0 0.0 0.21 3.26 3.26 86 1009.1
20220525013749 64 62 0.0 0.0 0.35 3.25 3.25 86 1009.1
20220525013247 64 15 0.0 3.0 2.55 3.22 3.22 85 1009.1
20220525012745 64 14 0.0 0.0 3.26 3.19 3.19 85 1009.4
20220525012243 64 120 0.0 0.0 2.20 2.79 2.79 84 1009.1
20220525011743 65 171 2.0 3.0 2.55 2.63 2.63 83 1009.4
20220525011242 65 247 0.0 0.0 2.83 2.42 2.42 83 1008.8
20220525010740 66 94 0.0 3.0 2.41 2.19 2.19 83 1008.8
20220525010239 66 185 0.0 0.0 4.04 1.94 1.94 80 1008.3
20220525005738 67 218 1.0 3.0 5.03 1.76 1.76 78 1007.6
20220525005237 68 294 0.0 0.0 5.24 1.24 1.24 74 1008.8
20220525004737 68 126 0.0 0.0 4.32 0.90 0.90 71 1008.8
20220525004235 69 245 0.0 0.0 1.42 0.35 0.35 67 1007.6
20220525003734 69 280 0.0 0.0 0.35 0.17 0.17 66 1007.6
20220525003232 70 152 0.0 0.0 0.07 0.12 0.12 64 1007.3
20220525002731 70 8 0.0 0.0 0.00 0.11 0.11 63 1007.3
20220525002231 70 5 0.0 0.0 0.07 0.11 0.11 61 1006.6
20220525001729 70 6 0.0 0.0 0.07 0.11 0.11 61 1007.0
20220525001228 71 15 0.0 0.0 0.07 0.09 0.09 61 1006.6
20220525000727 71 22 0.0 0.0 0.35 0.09 0.09 60 1006.3
20220525000225 71 24 0.0 0.0 0.28 0.08 0.08 59 1006.3
20220524235723 72 0 0.0 0.0 0.00 0.04 0.04 53 1005.9
20220524235224 72 107 0.0 0.0 0.00 0.04 0.04 52 1006.3
20220524234722 72 97 0.0 0.0 0.00 0.04 0.04 51 1006.3
20220524234220 72 141 0.0 0.0 0.00 0.04 0.04 50 1006.6
20220524233719 72 54 0.0 0.0 0.00 0.04 0.04 50 1006.6
20220524233218 72 63 0.0 0.0 0.00 0.04 0.04 49 1006.6
20220524232717 72 252 0.0 0.0 0.00 0.04 0.04 49 1006.6
20220524232217 73 207 0.0 0.0 0.00 0.04 0.04 50 1006.3
20220524231716 73 101 0.0 0.0 0.00 0.04 0.04 49 1006.3
20220524231215 73 143 0.0 0.0 0.00 0.04 0.04 49 1006.3
20220524230714 73 38 0.0 0.0 0.00 0.04 0.04 50 1006.3
20220524230214 74 13 0.0 0.0 0.00 0.04 0.04 49 1006.3
20220524225714 74 335 0.0 0.0 0.00 0.04 0.04 52 1006.3
20220524225212 74 358 0.0 0.0 0.00 0.04 0.04 52 1006.3
20220524224711 74 76 0.0 0.0 0.00 0.04 0.04 51 1006.3
20220524224209 74 178 0.0 0.0 0.00 0.04 0.04 49 1005.9
20220524223708 74 116 0.0 0.0 0.00 0.04 0.04 47 1006.3
20220524223208 74 12 0.0 0.0 0.00 0.04 0.04 45 1006.3
20220524222706 74 107 0.0 0.0 0.00 0.04 0.04 44 1007.0
20220524222206 74 213 0.0 0.0 0.00 0.04 0.04 43 1007.0
20220524221704 74 117 0.0 0.0 0.00 0.04 0.04 44 1007.0
20220524221203 74 201 0.0 0.0 0.00 0.04 0.04 44 1007.0
20220524220703 75 130 0.0 0.0 0.00 0.04 0.04 46 1007.3
20220524220202 75 39 0.0 0.0 0.00 0.04 0.04 46 1007.3
20220524215702 75 154 0.0 0.0 0.00 0.04 0.04 46 1007.3
20220524215201 75 293 0.0 0.0 0.00 0.04 0.04 45 1007.3
20220524214701 75 73 0.0 0.0 0.00 0.04 0.04 45 1007.6
20220524214159 75 72 0.0 0.0 0.00 0.04 0.04 45 1007.3
20220524213657 75 139 0.0 0.0 0.00 0.04 0.04 46 1007.6
20220524213156 75 139 0.0 0.0 0.00 0.04 0.04 48 1007.6
20220524212654 75 48 0.0 0.0 0.00 0.04 0.04 47 1008.0
20220524212153 75 272 0.0 0.0 0.00 0.04 0.04 45 1008.0
20220524211651 74 146 0.0 0.0 0.00 0.04 0.04 45 1008.0
20220524211150 73 117 0.0 0.0 0.00 0.04 0.04 47 1008.0
20220524210651 73 148 0.0 0.0 0.00 0.04 0.04 48 1008.0
20220524210149 73 71 0.0 0.0 0.00 0.04 0.04 47 1008.0
20220524205648 72 354 0.0 0.0 0.00 0.04 0.04 51 1008.0
20220524205146 71 19 0.0 0.0 0.00 0.04 0.04 50 1008.0
20220524204646 71 356 0.0 0.0 0.00 0.04 0.04 52 1008.0
20220524204144 71 161 0.0 0.0 0.00 0.04 0.04 52 1008.0
20220524203643 71 176 0.0 0.0 0.00 0.04 0.04 53 1008.3
20220524203143 70 330 0.0 0.0 0.00 0.04 0.04 53 1008.8
20220524202643 70 101 0.0 0.0 0.00 0.04 0.04 53 1008.3
20220524202141 69 30 0.0 0.0 0.00 0.04 0.04 55 1008.8
20220524201641 69 151 0.0 0.0 0.00 0.04 0.04 57 1008.3
20220524201141 69 214 0.0 0.0 0.00 0.04 0.04 58 1008.8
20220524200639 69 97 0.0 0.0 0.00 0.04 0.04 58 1009.1
20220524200139 69 198 0.0 0.0 0.00 0.04 0.04 60 1009.1
20220524195639 69 185 0.0 0.0 0.00 0.04 0.04 60 1009.1
20220524195139 69 146 0.0 0.0 0.00 0.04 0.04 63 1009.4
20220524194637 69 231 0.0 0.0 0.00 0.04 0.04 62 1009.8
20220524194135 69 277 0.0 0.0 0.00 0.04 0.04 62 1009.8
20220524193634 69 119 0.0 0.0 0.00 0.04 0.04 62 1009.8
20220524193133 69 272 0.0 0.0 0.00 0.04 0.04 62 1009.8
20220524192633 69 343 0.0 0.0 0.00 0.04 0.04 62 1010.1
20220524192131 69 154 0.0 0.0 0.00 0.04 0.04 62 1010.1
20220524191629 69 258 0.0 0.0 0.07 0.04 0.04 60 1010.1
20220524191128 69 262 0.0 0.0 0.07 0.02 0.02 60 1010.4
20220524190628 70 243 0.0 0.0 0.14 0.02 0.02 57 1010.4
20220524190126 70 267 0.0 0.0 0.07 0.01 0.01 56 1010.4
20220524185627 71 276 0.0 0.0 0.00 0.00 0.00 53 1010.4
20220524185125 72 322 0.0 0.0 0.00 0.00 0.00 51 1010.1
20220524184625 73 317 0.0 0.0 0.00 0.00 0.00 50 1010.4
20220524184125 74 231 0.0 0.0 0.00 0.00 0.00 50 1010.4
20220524183623 75 151 0.0 0.0 0.00 0.00 0.00 49 1010.4
20220524183122 75 170 0.0 0.0 0.00 0.00 0.00 49 1010.4
20220524182621 75 35 0.0 3.0 0.00 0.00 0.00 52 1009.8
20220524182119 75 2 0.0 0.0 0.00 0.00 0.00 52 1010.1
20220524181618 74 334 0.0 0.0 0.00 0.00 0.00 52 1010.1
20220524181118 74 145 0.0 0.0 0.00 0.00 0.00 52 1010.1
20220524180616 74 350 0.0 0.0 0.00 0.00 0.00 55 1009.8
20220524180115 74 251 0.0 0.0 0.00 0.00 0.00 56 1010.1
20220524175614 74 250 0.0 0.0 0.00 0.00 0.00 56 1010.1
20220524175114 74 229 0.0 0.0 0.00 0.00 0.00 55 1010.1
20220524174612 74 231 0.0 0.0 0.00 0.00 0.00 54 1010.1
20220524174111 74 329 0.0 0.0 0.00 0.00 0.00 54 1010.4
20220524173610 74 290 0.0 0.0 0.00 0.00 0.00 54 1010.4
20220524173109 74 328 0.0 0.0 0.00 0.00 0.00 53 1010.4
20220524172607 74 327 0.0 0.0 0.00 0.00 0.00 53 1010.4
20220524172106 74 347 0.0 0.0 0.00 0.00 0.00 52 1010.4
20220524171606 74 251 0.0 0.0 0.00 0.00 0.00 52 1010.4
20220524171106 74 221 0.0 0.0 0.00 0.00 0.00 52 1010.4
20220524170604 74 32 0.0 0.0 0.00 0.00 0.00 52 1010.4
20220524170102 74 348 0.0 0.0 0.00 0.00 0.00 52 1010.1
20220524165601 73 329 0.0 0.0 0.00 0.00 0.00 52 1010.4
20220524165059 73 9 0.0 0.0 0.00 0.00 0.00 53 1010.1
20220524164558 73 75 0.0 0.0 0.00 0.00 0.00 53 1010.4
20220524164057 73 182 0.0 0.0 0.00 0.00 0.00 52 1010.4
20220524163556 73 12 0.0 0.0 0.00 0.00 0.00 52 1010.4
20220524163055 73 306 0.0 0.0 0.00 0.00 0.00 52 1010.4
20220524162553 73 13 0.0 0.0 0.00 0.00 0.00 52 1010.4
20220524162053 73 357 0.0 0.0 0.00 0.00 0.00 52 1010.4
20220524161552 73 31 0.0 0.0 0.00 0.00 0.00 52 1010.4
20220524161053 73 154 0.0 0.0 0.00 0.00 0.00 52 1010.4
20220524160552 73 343 0.0 0.0 0.00 0.00 0.00 52 1010.4
20220524160051 73 5 0.0 0.0 0.00 0.00 0.00 52 1010.8
20220524155551 73 319 0.0 0.0 0.00 0.00 0.00 52 1010.4
20220524155049 72 12 0.0 0.0 0.00 0.00 0.00 52 1010.4
20220524154548 72 126 0.0 0.0 0.00 0.00 0.00 52 1010.8
20220524154048 72 127 0.0 0.0 0.00 0.00 0.00 51 1010.8
20220524153547 71 151 0.0 0.0 0.00 0.00 0.00 51 1010.8
20220524153046 71 23 0.0 3.0 0.00 0.00 0.00 52 1011.1
20220524152545 71 13 0.0 0.0 0.00 0.00 0.00 54 1011.1
20220524152044 71 183 0.0 0.0 0.00 0.00 0.00 54 1011.1
20220524151542 71 207 0.0 0.0 0.00 0.00 0.00 54 1011.1
20220524151042 71 109 0.0 0.0 0.00 0.00 0.00 54 1011.5
20220524150543 71 9 0.0 0.0 0.00 0.00 0.00 54 1011.5
20220524150041 70 44 1.0 3.0 0.00 0.00 0.00 54 1011.8
20220524145539 70 6 0.0 0.0 0.00 0.00 0.00 55 1011.5
20220524145038 70 198 0.0 0.0 0.00 0.00 0.00 55 1011.5
20220524144537 70 345 0.0 0.0 0.00 0.00 0.00 55 1011.5
20220524144038 70 354 0.0 0.0 0.00 0.00 0.00 55 1011.5
20220524143537 70 4 0.0 0.0 0.00 0.00 0.00 55 1011.1
20220524143036 70 170 0.0 0.0 0.00 0.00 0.00 56 1011.1
20220524142535 70 359 0.0 0.0 0.00 0.00 0.00 56 1011.5
20220524142034 69 157 0.0 0.0 0.00 0.00 0.00 56 1011.5
20220524141533 69 52 0.0 0.0 0.00 0.00 0.00 56 1011.1
20220524141032 69 15 0.0 0.0 0.00 0.00 0.00 58 1010.8
20220524140532 69 71 0.0 0.0 0.00 0.00 0.00 58 1010.8
20220524140032 69 2 0.0 0.0 0.00 0.00 0.00 58 1010.4
20220524135531 69 228 0.0 0.0 0.00 0.00 0.00 59 1010.8
20220524135031 69 98 0.0 0.0 0.00 0.00 0.00 59 1010.4
20220524134530 69 83 0.0 0.0 0.00 0.00 0.00 59 1011.1
20220524134030 69 166 0.0 0.0 0.00 0.00 0.00 59 1011.5
20220524133528 69 52 0.0 0.0 0.00 0.00 0.00 59 1011.5
20220524133028 69 135 0.0 0.0 0.00 0.00 0.00 59 1011.5
20220524132526 69 133 0.0 0.0 0.00 0.00 0.00 60 1011.5
20220524132026 68 249 0.0 0.0 0.00 0.00 0.00 60 1011.8
20220524131524 68 6 0.0 0.0 0.00 0.00 0.00 61 1011.5
20220524131024 68 181 0.0 0.0 0.00 0.00 0.00 61 1011.8
20220524130523 68 165 0.0 0.0 0.00 0.00 0.00 62 1011.5
20220524130024 68 50 0.0 0.0 0.00 0.00 0.00 62 1012.1
20220524125522 68 356 0.0 0.0 0.00 0.00 0.00 62 1011.8
20220524125020 68 76 0.0 0.0 0.00 0.00 0.00 61 1011.8
20220524124518 68 40 0.0 0.0 0.00 0.00 0.00 61 1011.8
20220524124017 68 7 0.0 0.0 0.00 0.00 0.00 61 1011.8
20220524123517 68 350 0.0 0.0 0.00 0.00 0.00 61 1011.8
20220524123018 68 315 0.0 0.0 0.00 0.00 0.00 61 1011.8
20220524122517 68 44 0.0 0.0 0.00 0.00 0.00 60 1011.8
20220524122015 68 44 0.0 0.0 0.00 0.00 0.00 60 1011.5
20220524121514 68 353 0.0 3.0 0.00 0.00 0.00 60 1011.8
20220524121014 68 58 0.0 0.0 0.00 0.00 0.00 60 1011.5
20220524120514 68 174 0.0 0.0 0.00 0.00 0.00 60 1011.8
20220524120016 68 83 0.0 0.0 0.00 0.00 0.00 61 1012.1
20220524115511 68 85 0.0 0.0 0.00 0.00 0.00 61 1011.8
20220524115010 68 175 0.0 0.0 0.00 0.00 0.00 60 1011.8
20220524114509 68 152 0.0 0.0 0.00 0.00 0.00 60 1011.8
20220524114007 68 137 0.0 0.0 0.00 0.00 0.00 58 1011.8
20220524113505 68 141 0.0 0.0 0.00 0.00 0.00 57 1012.1
20220524113004 69 359 0.0 0.0 0.00 0.00 0.00 56 1012.1
20220524112503 69 356 0.0 0.0 0.00 0.00 0.00 56 1012.1
20220524112003 69 169 0.0 0.0 0.00 0.00 0.00 55 1012.1
20220524111502 69 170 0.0 0.0 0.00 0.00 0.00 54 1012.1
20220524111001 69 352 0.0 0.0 0.00 0.00 0.00 54 1012.5
20220524110459 69 352 0.0 0.0 0.00 0.00 0.00 53 1012.5
20220524105958 69 349 0.0 0.0 0.00 0.00 0.00 53 1012.8
20220524105457 69 0 0.0 0.0 0.00 0.00 0.00 53 1012.5
20220524104956 69 350 0.0 0.0 0.00 0.00 0.00 53 1012.5
20220524104455 69 142 0.0 0.0 0.00 0.00 0.00 53 1012.8
20220524103954 69 318 0.0 0.0 0.00 0.00 0.00 53 1012.8
20220524103452 69 2 0.0 0.0 0.00 0.00 0.00 53 1012.8
20220524102952 69 16 0.0 0.0 0.00 0.00 0.00 53 1012.8
20220524102451 69 351 0.0 0.0 0.00 0.00 0.00 53 1012.8
20220524101950 68 345 0.0 0.0 0.00 0.00 0.00 53 1012.5
20220524101449 68 16 0.0 0.0 0.00 0.00 0.00 53 1012.8
20220524100949 68 25 0.0 0.0 0.00 0.00 0.00 53 1012.5
20220524100447 68 18 0.0 0.0 0.00 0.00 0.00 53 1012.5
20220524095947 68 91 0.0 0.0 0.00 0.00 0.00 53 1012.8
20220524095446 68 16 0.0 0.0 0.00 0.00 0.00 53 1012.8
20220524094944 68 0 0.0 0.0 0.00 0.00 0.00 53 1012.8
20220524094444 68 131 0.0 0.0 0.00 0.00 0.00 53 1012.8
20220524093944 68 2 0.0 0.0 0.00 0.00 0.00 53 1012.1
20220524093443 68 156 0.0 0.0 0.00 0.00 0.00 53 1012.5
20220524092942 68 155 0.0 0.0 0.00 0.00 0.00 53 1012.8
20220524092442 68 156 0.0 0.0 0.00 0.00 0.00 53 1012.5
20220524091941 68 159 0.0 0.0 0.00 0.00 0.00 53 1012.5
20220524091441 68 175 0.0 0.0 0.00 0.00 0.00 53 1012.8
20220524090939 68 163 0.0 0.0 0.00 0.00 0.00 53 1012.5
20220524090438 68 157 0.0 0.0 0.00 0.00 0.00 53 1012.8
20220524085936 68 155 0.0 0.0 0.00 0.00 0.00 53 1012.8
20220524085434 68 138 0.0 0.0 0.00 0.00 0.00 53 1012.8
20220524084933 68 138 0.0 0.0 0.00 0.00 0.00 53 1012.8
20220524084431 68 13 0.0 0.0 0.00 0.00 0.00 53 1013.2
20220524083931 68 84 0.0 0.0 0.00 0.00 0.00 53 1013.2
20220524083430 68 128 0.0 0.0 0.00 0.00 0.00 53 1012.8
20220524082929 68 39 0.0 0.0 0.00 0.00 0.00 53 1012.8
20220524082428 68 153 0.0 0.0 0.00 0.00 0.00 53 1012.5
20220524081926 68 16 0.0 0.0 0.00 0.00 0.00 53 1012.8
20220524081425 68 153 0.0 0.0 0.00 0.00 0.00 54 1012.8
20220524080923 68 345 0.0 0.0 0.00 0.00 0.00 53 1012.5
20220524080423 68 32 0.0 0.0 0.00 0.00 0.00 53 1011.8
20220524075922 68 150 0.0 0.0 0.00 0.00 0.00 54 1012.1
20220524075420 68 35 0.0 3.0 0.00 0.00 0.00 54 1012.5
20220524074919 68 229 0.0 0.0 0.00 0.00 0.00 54 1012.5
20220524074417 68 141 0.0 0.0 0.00 0.00 0.00 54 1012.5
20220524073916 68 141 0.0 0.0 0.00 0.00 0.00 54 1012.5
20220524073416 68 142 0.0 0.0 0.00 0.00 0.00 54 1012.5
20220524072915 68 143 0.0 0.0 0.00 0.00 0.00 54 1012.5
20220524072415 68 13 0.0 0.0 0.00 0.00 0.00 54 1012.8
20220524071913 68 14 0.0 0.0 0.00 0.00 0.00 54 1013.2